Location: Caltech
(34.1382°N, 118.1253°W)
Time: 00:18:35
(UTC-07:00)

Cosmos 1937 Rocket - Visible Passes

Search period start: 31 July 2016 00:00
Search period end: 10 August 2016 00:00
Orbit: 748 x 780 km, 74.0° (Epoch: 30 July)

Date Brightness Start Highest point End Pass type
(mag) Time Alt. Az. Time Alt. Az. Time Alt. Az.
31 Jul 4.6 02:41:24 10° NNW 02:44:37 39° N 02:44:37 39° N visible
01 Aug 5.1 02:03:21 10° N 02:06:23 31° NNE 02:06:23 31° NNE visible
02 Aug 5.7 01:25:39 10° N 01:28:12 21° NE 01:28:12 21° NE visible
02 Aug 5.6 03:07:13 10° NW 03:08:20 16° NW 03:08:20 16° NW visible
03 Aug 6.1 00:48:41 10° NNE 00:50:06 13° NE 00:50:06 13° NE visible
03 Aug 5.5 02:28:33 10° NNW 02:30:14 21° NNW 02:30:14 21° NNW visible
04 Aug 5.5 01:50:14 10° NNW 01:52:12 23° N 01:52:12 23° N visible
05 Aug 5.7 01:12:15 10° N 01:14:11 21° NNE 01:14:11 21° NNE visible
06 Aug 6.0 00:34:40 10° NNE 00:36:13 16° NNE 00:36:13 16° NNE visible
06 Aug 6.0 02:15:54 10° NW 02:16:22 12° NW 02:16:22 12° NW visible
06 Aug 6.2 23:58:04 10° NE 23:58:18 10° NE 23:58:18 10° NE visible
07 Aug 5.9 01:37:19 10° NNW 01:38:27 17° NNW 01:38:27 17° NNW visible
08 Aug 5.9 00:59:05 10° N 01:00:34 19° N 01:00:34 19° N visible
09 Aug 5.9 00:21:11 10° N 00:22:42 18° NNE 00:22:42 18° NNE visible
09 Aug 6.0 23:43:44 10° NNE 23:44:52 14° NNE 23:44:52 14° NNE visible
